Simultaneous Nadir Overpasses (SNOs) Predictions

Prediction of SNOs between AURA and NPP Satellite Orbit:

Table of predicted SNOs for the next 14.0 days since TLE Epoch: 3/9/2019
Index Date (AURA) Time (AURA) Lat,Lon (AURA) SZA (AURA ) Date (NPP) Time (NPP) Lat,Lon (NPP) SZA (NPP ) Distance(km) Time Diff (sec)
1 03/11/2019 19:09:49 -77.05, -42.66 80.46 03/11/2019 19:08:35 -77.23, -43.58 80.30 30.46 74
2 03/11/2019 19:58:11 79.73, 139.05 96.00 03/11/2019 19:58:13 79.73, 139.11 95.99 1.25 2
3 03/14/2019 11:25:20 -79.59, 86.22 84.84 03/14/2019 11:24:27 -79.59, 86.34 84.83 2.47 53
4 03/14/2019 12:14:41 79.76,-104.82 94.88 03/14/2019 12:15:06 79.76,-104.82 94.86 0.06 25
5 03/17/2019 03:41:49 -79.66,-157.38 86.03 03/17/2019 03:41:19 -79.66,-157.26 86.03 2.63 30
6 03/17/2019 04:31:10 79.83, 11.58 93.70 03/17/2019 04:31:58 79.83, 11.58 93.66 0.10 48
7 03/19/2019 19:58:20 -79.65, -41.53 87.10 03/19/2019 19:58:14 -79.65, -41.64 87.07 2.41 6
8 03/19/2019 20:47:39 79.90, 127.99 92.52 03/19/2019 20:48:50 79.90, 128.05 92.46 1.22 71
9 03/22/2019 11:25:27 79.49, -94.49 92.09 03/22/2019 11:24:27 79.48, -94.57 92.15 1.89 60




NCC Satellite Simultaneous Nadir Overpasses (SNOs) Prediction Service
